Time,TemperatureF,DewpointF,PressureIn,WindDirection,WindDirectionDegrees,WindSpeedMPH,WindSpeedGustMPH,Humidity,HourlyPrecipIn,Conditions,Clouds,dailyrainin,SoftwareType,DateUTC
2016-02-13 00:04:00,2.3,-10.9,30.59,North,360,6.0,10.0,53,0.00,,CLR,0.00,VWS V15.00,2016-02-13 06:04:00,
2016-02-13 00:09:00,2.2,-11.0,30.59,NNE,19,4.0,10.0,53,0.00,,CLR,0.00,VWS V15.00,2016-02-13 06:09:00,
2016-02-13 00:14:00,2.1,-11.1,30.59,North,10,3.0,6.0,53,0.00,,CLR,0.00,VWS V15.00,2016-02-13 06:14:00,
2016-02-13 00:19:00,2.0,-10.8,30.59,NNW,348,3.0,6.0,54,0.00,,CLR,0.00,VWS V15.00,2016-02-13 06:19:00,
2016-02-13 00:24:00,1.9,-10.9,30.60,NNE,24,2.0,6.0,54,0.00,,CLR,0.00,VWS V15.00,2016-02-13 06:24:00,
2016-02-13 00:29:00,1.8,-11.0,30.60,North,355,4.0,6.0,54,0.00,,CLR,0.00,VWS V15.00,2016-02-13 06:29:00,
2016-02-13 00:34:00,1.7,-10.7,30.60,North,360,5.0,9.0,55,0.00,,CLR,0.00,VWS V15.00,2016-02-13 06:34:00,
2016-02-13 00:39:00,1.7,-10.7,30.60,NNE,13,4.0,9.0,55,0.00,,CLR,0.00,VWS V15.00,2016-02-13 06:39:00,
2016-02-13 00:44:00,1.7,-10.7,30.60,NNW,347,5.0,9.0,55,0.00,,CLR,0.00,VWS V15.00,2016-02-13 06:44:00,
2016-02-13 00:49:00,1.7,-10.7,30.60,North,355,5.0,9.0,55,0.00,,CLR,0.00,VWS V15.00,2016-02-13 06:49:00,
2016-02-13 00:54:00,1.6,-10.8,30.60,North,355,4.0,5.0,55,0.00,,CLR,0.00,VWS V15.00,2016-02-13 06:54:00,
2016-02-13 00:59:00,1.5,-10.9,30.61,NNW,335,4.0,6.0,55,0.00,,CLR,0.00,VWS V15.00,2016-02-13 06:59:00,
2016-02-13 01:04:00,1.5,-10.9,30.61,NNW,341,3.0,5.0,55,0.00,,CLR,0.00,VWS V15.00,2016-02-13 07:04:00,
2016-02-13 01:09:00,1.5,-10.9,30.61,NNW,342,4.0,5.0,55,0.00,,CLR,0.00,VWS V15.00,2016-02-13 07:09:00,
2016-02-13 01:14:00,1.4,-11.0,30.61,NNW,347,3.0,5.0,55,0.00,,CLR,0.00,VWS V15.00,2016-02-13 07:14:00,
2016-02-13 01:19:00,1.4,-11.0,30.61,North,355,3.0,6.0,55,0.00,,CLR,0.00,VWS V15.00,2016-02-13 07:19:00,
2016-02-13 01:24:00,1.3,-11.1,30.61,North,355,5.0,5.0,55,0.00,,CLR,0.00,VWS V15.00,2016-02-13 07:24:00,
2016-02-13 01:29:00,1.3,-11.1,30.61,NNW,331,3.0,5.0,55,0.00,,CLR,0.00,VWS V15.00,2016-02-13 07:29:00,
2016-02-13 01:34:00,1.2,-11.2,30.61,NNW,341,5.0,6.0,55,0.00,,CLR,0.00,VWS V15.00,2016-02-13 07:34:00,
2016-02-13 01:39:00,1.2,-11.2,30.61,NNW,330,4.0,8.0,55,0.00,,CLR,0.00,VWS V15.00,2016-02-13 07:39:00,
2016-02-13 01:44:00,1.2,-11.2,30.62,NNW,329,6.0,9.0,55,0.00,,CLR,0.00,VWS V15.00,2016-02-13 07:44:00,
2016-02-13 01:49:00,1.1,-11.3,30.62,North,350,6.0,9.0,55,0.00,,CLR,0.00,VWS V15.00,2016-02-13 07:49:00,
2016-02-13 01:54:00,1.1,-11.3,30.62,NNW,340,4.0,9.0,55,0.00,,CLR,0.00,VWS V15.00,2016-02-13 07:54:00,
2016-02-13 01:59:00,1.0,-11.4,30.62,North,10,5.0,9.0,55,0.00,,CLR,0.00,VWS V15.00,2016-02-13 07:59:00,
2016-02-13 02:04:00,0.9,-11.5,30.63,North,355,8.0,11.0,55,0.00,,CLR,0.00,VWS V15.00,2016-02-13 08:04:00,
2016-02-13 02:09:00,0.9,-11.5,30.63,North,360,8.0,11.0,55,0.00,,CLR,0.00,VWS V15.00,2016-02-13 08:09:00,
2016-02-13 02:14:00,0.7,-11.7,30.63,North,360,8.0,9.0,55,0.00,,CLR,0.00,VWS V15.00,2016-02-13 08:14:00,
2016-02-13 02:19:00,0.6,-11.4,30.63,North,9,7.0,10.0,56,0.00,,CLR,0.00,VWS V15.00,2016-02-13 08:19:00,
2016-02-13 02:24:00,0.5,-11.5,30.63,NNE,24,5.0,10.0,56,0.00,,CLR,0.00,VWS V15.00,2016-02-13 08:24:00,
2016-02-13 02:29:00,0.4,-11.6,30.63,North,5,6.0,10.0,56,0.00,,CLR,0.00,VWS V15.00,2016-02-13 08:29:00,
2016-02-13 02:39:00,0.3,-11.7,30.64,NNE,17,4.0,8.0,56,0.00,,CLR,0.00,VWS V15.00,2016-02-13 08:39:00,
2016-02-13 02:44:00,0.2,-11.8,30.64,NNE,30,6.0,8.0,56,0.00,,CLR,0.00,VWS V15.00,2016-02-13 08:44:00,
2016-02-13 02:49:00,0.2,-11.8,30.64,North,5,3.0,8.0,56,0.00,,CLR,0.00,VWS V15.00,2016-02-13 08:49:00,
2016-02-13 02:54:00,0.1,-11.9,30.65,North,5,4.0,6.0,56,0.00,,CLR,0.00,VWS V15.00,2016-02-13 08:54:00,
2016-02-13 02:59:00,0.1,-12.0,30.64,North,5,3.0,6.0,56,0.00,,CLR,0.00,VWS V15.00,2016-02-13 08:59:00,
2016-02-13 03:04:00,0.1,-12.0,30.64,North,9,1.0,4.0,56,0.00,,CLR,0.00,VWS V15.00,2016-02-13 09:04:00,
2016-02-13 03:09:00,-0.1,-12.1,30.64,NNW,344,3.0,4.0,56,0.00,,CLR,0.00,VWS V15.00,2016-02-13 09:09:00,
2016-02-13 03:14:00,-0.1,-12.1,30.64,NNW,327,4.0,5.0,56,0.00,,CLR,0.00,VWS V15.00,2016-02-13 09:14:00,
2016-02-13 03:19:00,-0.1,-12.1,30.64,NNW,338,4.0,6.0,56,0.00,,CLR,0.00,VWS V15.00,2016-02-13 09:19:00,
2016-02-13 03:24:00,-0.1,-12.1,30.64,North,9,3.0,8.0,56,0.00,,CLR,0.00,VWS V15.00,2016-02-13 09:24:00,
2016-02-13 03:29:00,-0.2,-12.1,30.64,NNW,340,6.0,10.0,56,0.00,,CLR,0.00,VWS V15.00,2016-02-13 09:29:00,
2016-02-13 03:34:00,-0.2,-12.1,30.64,NW,323,8.0,9.0,56,0.00,,CLR,0.00,VWS V15.00,2016-02-13 09:34:00,
2016-02-13 03:39:00,-0.2,-11.8,30.64,NNW,328,6.0,10.0,57,0.00,,CLR,0.00,VWS V15.00,2016-02-13 09:39:00,
2016-02-13 03:44:00,-0.3,-11.9,30.64,NNW,335,8.0,9.0,57,0.00,,CLR,0.00,VWS V15.00,2016-02-13 09:44:00,
2016-02-13 03:49:00,-0.4,-12.0,30.64,NNW,343,5.0,9.0,57,0.00,,CLR,0.00,VWS V15.00,2016-02-13 09:49:00,
2016-02-13 03:54:00,-0.5,-12.1,30.65,North,5,6.0,8.0,57,0.00,,CLR,0.00,VWS V15.00,2016-02-13 09:54:00,
2016-02-13 04:04:00,-0.7,-12.3,30.64,NNW,342,9.0,9.0,57,0.00,,CLR,0.00,VWS V15.00,2016-02-13 10:04:00,
2016-02-13 04:09:00,-0.8,-12.4,30.65,NNW,345,10.0,10.0,57,0.00,,CLR,0.00,VWS V15.00,2016-02-13 10:09:00,
2016-02-13 04:14:00,-0.9,-12.5,30.65,NE,34,4.0,10.0,57,0.00,,CLR,0.00,VWS V15.00,2016-02-13 10:14:00,
2016-02-13 04:24:00,-1.2,-12.4,30.65,North,5,5.0,8.0,58,0.00,,CLR,0.00,VWS V15.00,2016-02-13 10:24:00,
2016-02-13 04:29:00,-1.3,-12.5,30.65,NNE,23,2.0,8.0,58,0.00,,CLR,0.00,VWS V15.00,2016-02-13 10:29:00,
2016-02-13 04:34:00,-1.4,-12.6,30.65,North,355,2.0,6.0,58,0.00,,CLR,0.00,VWS V15.00,2016-02-13 10:34:00,
2016-02-13 04:39:00,-1.4,-12.6,30.65,North,350,4.0,6.0,58,0.00,,CLR,0.00,VWS V15.00,2016-02-13 10:39:00,
2016-02-13 04:44:00,-1.5,-12.7,30.65,North,349,4.0,6.0,58,0.00,,CLR,0.00,VWS V15.00,2016-02-13 10:44:00,
2016-02-13 04:49:00,-1.6,-12.8,30.65,NNW,332,3.0,6.0,58,0.00,,CLR,0.00,VWS V15.00,2016-02-13 10:49:00,
2016-02-13 04:54:00,-1.6,-12.8,30.65,NW,309,7.0,9.0,58,0.00,,CLR,0.00,VWS V15.00,2016-02-13 10:54:00,
2016-02-13 04:59:00,-1.5,-12.7,30.65,NNW,333,5.0,9.0,58,0.00,,CLR,0.00,VWS V15.00,2016-02-13 10:59:00,
2016-02-13 05:04:00,-1.6,-12.8,30.65,North,351,5.0,9.0,58,0.00,,CLR,0.00,VWS V15.00,2016-02-13 11:04:00,
2016-02-13 05:09:00,-1.6,-12.8,30.65,NNW,346,4.0,9.0,58,0.00,,CLR,0.00,VWS V15.00,2016-02-13 11:09:00,
2016-02-13 05:14:00,-1.6,-12.8,30.65,NNW,343,6.0,8.0,58,0.00,,CLR,0.00,VWS V15.00,2016-02-13 11:14:00,
2016-02-13 05:19:00,-1.7,-12.5,30.65,NNE,15,5.0,9.0,59,0.00,,CLR,0.00,VWS V15.00,2016-02-13 11:19:00,
2016-02-13 05:24:00,-1.8,-12.6,30.65,North,5,5.0,7.0,59,0.00,,CLR,0.00,VWS V15.00,2016-02-13 11:24:00,
2016-02-13 05:29:00,-2.0,-12.8,30.65,NNE,19,4.0,8.0,59,0.00,,CLR,0.00,VWS V15.00,2016-02-13 11:29:00,
2016-02-13 05:34:00,-2.2,-12.7,30.66,NNE,17,1.0,7.0,60,0.00,,CLR,0.00,VWS V15.00,2016-02-13 11:34:00,
2016-02-13 05:39:00,-2.3,-12.8,30.65,NNE,19,5.0,7.0,60,0.00,,CLR,0.00,VWS V15.00,2016-02-13 11:39:00,
2016-02-13 05:44:00,-2.4,-12.5,30.65,North,5,4.0,5.0,61,0.00,,CLR,0.00,VWS V15.00,2016-02-13 11:44:00,
2016-02-13 05:49:00,-2.5,-12.6,30.66,North,11,4.0,5.0,61,0.00,,CLR,0.00,VWS V15.00,2016-02-13 11:49:00,
2016-02-13 05:59:00,-2.5,-12.6,30.66,NNE,28,1.0,7.0,61,0.00,,CLR,0.00,VWS V15.00,2016-02-13 11:59:00,
2016-02-13 06:04:00,-2.5,-12.6,30.65,North,5,1.0,5.0,61,0.00,,CLR,0.00,VWS V15.00,2016-02-13 12:04:00,
2016-02-13 06:09:00,-2.5,-12.3,30.65,North,5,1.0,5.0,62,0.00,,CLR,0.00,VWS V15.00,2016-02-13 12:09:00,
2016-02-13 06:19:00,-2.7,-12.5,30.66,NNE,17,4.0,5.0,62,0.00,,CLR,0.00,VWS V15.00,2016-02-13 12:19:00,
2016-02-13 06:24:00,-2.8,-12.6,30.66,North,355,4.0,5.0,62,0.00,,CLR,0.00,VWS V15.00,2016-02-13 12:24:00,
2016-02-13 06:29:00,-2.8,-12.6,30.66,NNW,339,5.0,8.0,62,0.00,,CLR,0.00,VWS V15.00,2016-02-13 12:29:00,
2016-02-13 06:34:00,-2.9,-12.7,30.66,North,360,4.0,6.0,62,0.00,,CLR,0.00,VWS V15.00,2016-02-13 12:34:00,
2016-02-13 06:39:00,-3.0,-12.4,30.66,North,360,3.0,6.0,63,0.00,,CLR,0.00,VWS V15.00,2016-02-13 12:39:00,
2016-02-13 06:44:00,-3.1,-12.5,30.67,North,5,4.0,5.0,63,0.00,,CLR,0.00,VWS V15.00,2016-02-13 12:44:00,
2016-02-13 06:49:00,-3.3,-12.7,30.67,NNE,12,3.0,6.0,63,0.00,,CLR,0.00,VWS V15.00,2016-02-13 12:49:00,
2016-02-13 06:54:00,-3.4,-12.8,30.67,NNW,344,5.0,9.0,63,0.00,,CLR,0.00,VWS V15.00,2016-02-13 12:54:00,
2016-02-13 06:59:00,-3.4,-12.5,30.67,North,10,7.0,9.0,64,0.00,,CLR,0.00,VWS V15.00,2016-02-13 12:59:00,
2016-02-13 07:04:00,-3.6,-12.7,30.67,NNE,13,5.0,8.0,64,0.00,,CLR,0.00,VWS V15.00,2016-02-13 13:04:00,
2016-02-13 07:09:00,-3.7,-12.8,30.67,North,355,5.0,9.0,64,0.00,,CLR,0.00,VWS V15.00,2016-02-13 13:09:00,
2016-02-13 07:14:00,-3.7,-12.8,30.67,North,9,4.0,7.0,64,0.00,,CLR,0.00,VWS V15.00,2016-02-13 13:14:00,
2016-02-13 07:19:00,-3.7,-12.8,30.67,NNE,13,4.0,7.0,64,0.00,,CLR,0.00,VWS V15.00,2016-02-13 13:19:00,
2016-02-13 07:24:00,-3.8,-12.6,30.67,North,5,5.0,5.0,65,0.00,,CLR,0.00,VWS V15.00,2016-02-13 13:24:00,
2016-02-13 07:29:00,-3.9,-12.7,30.67,NNE,18,5.0,6.0,65,0.00,,CLR,0.00,VWS V15.00,2016-02-13 13:29:00,
2016-02-13 07:34:00,-3.9,-12.7,30.68,NNE,26,4.0,5.0,65,0.00,,CLR,0.00,VWS V15.00,2016-02-13 13:34:00,
2016-02-13 07:39:00,-3.9,-12.7,30.67,NNE,24,8.0,8.0,65,0.00,,CLR,0.00,VWS V15.00,2016-02-13 13:39:00,
2016-02-13 07:44:00,-3.8,-12.6,30.67,North,360,5.0,8.0,65,0.00,,CLR,0.00,VWS V15.00,2016-02-13 13:44:00,
2016-02-13 07:49:00,-3.6,-12.4,30.67,North,11,5.0,8.0,65,0.00,,CLR,0.00,VWS V15.00,2016-02-13 13:49:00,
2016-02-13 07:54:00,-3.5,-12.3,30.67,NNW,343,4.0,8.0,65,0.00,,CLR,0.00,VWS V15.00,2016-02-13 13:54:00,
2016-02-13 07:59:00,-3.4,-12.2,30.67,North,355,5.0,8.0,65,0.00,,CLR,0.00,VWS V15.00,2016-02-13 13:59:00,
2016-02-13 08:04:00,-3.4,-12.2,30.68,NNE,14,4.0,5.0,65,0.00,,CLR,0.00,VWS V15.00,2016-02-13 14:04:00,
2016-02-13 08:09:00,-3.2,-12.0,30.68,NNW,329,3.0,5.0,65,0.00,,CLR,0.00,VWS V15.00,2016-02-13 14:09:00,
2016-02-13 08:19:00,-3.0,-12.1,30.68,NNE,19,3.0,8.0,64,0.00,,CLR,0.00,VWS V15.00,2016-02-13 14:19:00,
2016-02-13 08:24:00,-2.9,-12.0,30.67,NNE,27,1.0,8.0,64,0.00,,CLR,0.00,VWS V15.00,2016-02-13 14:24:00,
2016-02-13 08:29:00,-2.8,-11.9,30.67,NNE,26,3.0,8.0,64,0.00,,CLR,0.00,VWS V15.00,2016-02-13 14:29:00,
2016-02-13 08:34:00,-2.7,-11.9,30.67,NNW,340,5.0,8.0,64,0.00,,CLR,0.00,VWS V15.00,2016-02-13 14:34:00,
2016-02-13 08:39:00,-2.5,-11.7,30.68,North,360,2.0,8.0,64,0.00,,CLR,0.00,VWS V15.00,2016-02-13 14:39:00,
2016-02-13 08:44:00,-2.4,-11.6,30.68,North,355,6.0,6.0,64,0.00,,CLR,0.00,VWS V15.00,2016-02-13 14:44:00,
2016-02-13 08:49:00,-2.3,-11.5,30.68,NNE,14,4.0,8.0,64,0.00,,CLR,0.00,VWS V15.00,2016-02-13 14:49:00,
2016-02-13 08:59:00,-1.9,-11.1,30.70,NNW,340,3.0,9.0,64,0.00,,CLR,0.00,VWS V15.00,2016-02-13 14:59:00,
2016-02-13 09:04:00,-1.7,-11.2,30.69,WNW,298,8.0,11.0,63,0.00,,CLR,0.00,VWS V15.00,2016-02-13 15:04:00,
2016-02-13 09:09:00,-1.7,-11.2,30.69,NW,316,9.0,11.0,63,0.00,,CLR,0.00,VWS V15.00,2016-02-13 15:09:00,
2016-02-13 09:14:00,-1.5,-11.0,30.69,NNE,17,3.0,6.0,63,0.00,,CLR,0.00,VWS V15.00,2016-02-13 15:14:00,
2016-02-13 09:19:00,-1.4,-10.9,30.69,North,5,2.0,8.0,63,0.00,,CLR,0.00,VWS V15.00,2016-02-13 15:19:00,
2016-02-13 09:24:00,-1.3,-10.8,30.69,NW,313,9.0,10.0,63,0.00,,CLR,0.00,VWS V15.00,2016-02-13 15:24:00,
2016-02-13 09:29:00,-1.3,-10.8,30.69,North,360,4.0,10.0,63,0.00,,CLR,0.00,VWS V15.00,2016-02-13 15:29:00,
2016-02-13 09:34:00,-1.1,-10.6,30.69,North,360,5.0,8.0,63,0.00,,CLR,0.00,VWS V15.00,2016-02-13 15:34:00,
2016-02-13 09:39:00,-0.8,-10.4,30.69,NNE,27,6.0,9.0,63,0.00,,CLR,0.00,VWS V15.00,2016-02-13 15:39:00,
2016-02-13 09:44:00,-0.6,-10.5,30.69,NNE,30,4.0,9.0,62,0.00,,CLR,0.00,VWS V15.00,2016-02-13 15:44:00,
2016-02-13 09:49:00,-0.4,-10.3,30.69,NNE,32,3.0,9.0,62,0.00,,CLR,0.00,VWS V15.00,2016-02-13 15:49:00,
2016-02-13 09:54:00,-0.1,-10.3,30.69,NNW,342,2.0,5.0,61,0.00,,CLR,0.00,VWS V15.00,2016-02-13 15:54:00,
2016-02-13 09:59:00,0.2,-10.1,30.69,WNW,292,4.0,7.0,61,0.00,,CLR,0.00,VWS V15.00,2016-02-13 15:59:00,
2016-02-13 10:04:00,0.4,-9.9,30.69,NNW,334,5.0,6.0,61,0.00,,CLR,0.00,VWS V15.00,2016-02-13 16:04:00,
2016-02-13 10:09:00,0.6,-10.0,30.70,NW,315,4.0,8.0,60,0.00,,CLR,0.00,VWS V15.00,2016-02-13 16:09:00,
2016-02-13 10:14:00,0.9,-9.4,30.70,North,11,2.0,5.0,61,0.00,,CLR,0.00,VWS V15.00,2016-02-13 16:14:00,
2016-02-13 10:24:00,1.7,-9.3,30.70,NNE,27,3.0,5.0,59,0.00,,CLR,0.00,VWS V15.00,2016-02-13 16:24:00,
2016-02-13 10:29:00,2.0,-9.0,30.70,NNW,335,4.0,6.0,59,0.00,,CLR,0.00,VWS V15.00,2016-02-13 16:29:00,
2016-02-13 10:34:00,2.3,-8.7,30.70,North,355,2.0,5.0,59,0.00,,CLR,0.00,VWS V15.00,2016-02-13 16:34:00,
2016-02-13 10:39:00,2.7,-8.7,30.69,WNW,286,7.0,8.0,58,0.00,,CLR,0.00,VWS V15.00,2016-02-13 16:39:00,
2016-02-13 10:44:00,2.9,-8.9,30.69,WNW,299,2.0,5.0,57,0.00,,CLR,0.00,VWS V15.00,2016-02-13 16:44:00,
2016-02-13 10:49:00,3.2,-8.6,30.69,NW,321,3.0,5.0,57,0.00,,CLR,0.00,VWS V15.00,2016-02-13 16:49:00,
2016-02-13 10:54:00,3.6,-8.2,30.69,WNW,300,2.0,5.0,57,0.00,,CLR,0.00,VWS V15.00,2016-02-13 16:54:00,
2016-02-13 10:59:00,3.9,-8.3,30.70,NW,322,1.0,9.0,56,0.00,,CLR,0.00,VWS V15.00,2016-02-13 16:59:00,
2016-02-13 11:04:00,4.1,-8.1,30.70,WNW,285,4.0,6.0,56,0.00,,CLR,0.00,VWS V15.00,2016-02-13 17:04:00,
2016-02-13 11:09:00,4.4,-7.8,30.70,WNW,302,2.0,8.0,56,0.00,,CLR,0.00,VWS V15.00,2016-02-13 17:09:00,
2016-02-13 11:14:00,4.4,-8.6,30.70,North,355,3.0,9.0,54,0.00,,CLR,0.00,VWS V15.00,2016-02-13 17:14:00,
2016-02-13 11:19:00,4.5,-8.1,30.70,WNW,300,4.0,9.0,55,0.00,,CLR,0.00,VWS V15.00,2016-02-13 17:19:00,
2016-02-13 11:29:00,4.7,-8.3,30.69,NW,311,5.0,9.0,54,0.00,,CLR,0.00,VWS V15.00,2016-02-13 17:29:00,
2016-02-13 11:34:00,4.7,-8.3,30.69,NNE,22,3.0,7.0,54,0.00,,CLR,0.00,VWS V15.00,2016-02-13 17:34:00,
2016-02-13 11:39:00,4.6,-8.4,30.69,North,11,3.0,7.0,54,0.00,,CLR,0.00,VWS V15.00,2016-02-13 17:39:00,
2016-02-13 11:44:00,4.9,-8.1,30.68,WNW,300,4.0,6.0,54,0.00,,CLR,0.00,VWS V15.00,2016-02-13 17:44:00,
2016-02-13 11:54:00,5.7,-7.7,30.68,NW,315,5.0,7.0,53,0.00,,CLR,0.00,VWS V15.00,2016-02-13 17:54:00,
2016-02-13 11:59:00,5.8,-8.0,30.67,NNW,342,4.0,8.0,52,0.00,,CLR,0.00,VWS V15.00,2016-02-13 17:59:00,
2016-02-13 12:04:00,5.7,-8.1,30.67,North,5,4.0,8.0,52,0.00,,CLR,0.00,VWS V15.00,2016-02-13 18:04:00,
2016-02-13 12:09:00,5.8,-8.0,30.67,North,350,4.0,11.0,52,0.00,,CLR,0.00,VWS V15.00,2016-02-13 18:09:00,
2016-02-13 12:14:00,5.7,-8.1,30.67,NNE,19,7.0,9.0,52,0.00,,CLR,0.00,VWS V15.00,2016-02-13 18:14:00,
2016-02-13 12:19:00,5.6,-8.6,30.67,NNE,22,1.0,9.0,51,0.00,,CLR,0.00,VWS V15.00,2016-02-13 18:19:00,
2016-02-13 12:24:00,5.9,-7.9,30.67,NNW,348,5.0,6.0,52,0.00,,CLR,0.00,VWS V15.00,2016-02-13 18:24:00,
2016-02-13 12:29:00,6.2,-8.1,30.67,NNE,21,3.0,7.0,51,0.00,,CLR,0.00,VWS V15.00,2016-02-13 18:29:00,
2016-02-13 12:34:00,6.4,-7.9,30.66,NNE,28,1.0,5.0,51,0.00,,CLR,0.00,VWS V15.00,2016-02-13 18:34:00,
2016-02-13 12:39:00,6.7,-7.6,30.66,NNE,22,0.0,5.0,51,0.00,,CLR,0.00,VWS V15.00,2016-02-13 18:39:00,
2016-02-13 12:44:00,7.2,-7.1,30.66,NNE,15,2.0,6.0,51,0.00,,CLR,0.00,VWS V15.00,2016-02-13 18:44:00,
2016-02-13 12:49:00,7.3,-7.4,30.65,NNE,25,3.0,8.0,50,0.00,,CLR,0.00,VWS V15.00,2016-02-13 18:49:00,
2016-02-13 12:54:00,7.1,-7.6,30.65,NE,36,5.0,6.0,50,0.00,,CLR,0.00,VWS V15.00,2016-02-13 18:54:00,
2016-02-13 12:59:00,7.3,-7.0,30.65,NNE,13,2.0,6.0,51,0.00,,CLR,0.00,VWS V15.00,2016-02-13 18:59:00,
2016-02-13 13:04:00,7.6,-7.2,30.65,NNE,17,3.0,5.0,50,0.00,,CLR,0.00,VWS V15.00,2016-02-13 19:04:00,
2016-02-13 13:09:00,8.0,-6.8,30.65,North,5,3.0,7.0,50,0.00,,CLR,0.00,VWS V15.00,2016-02-13 19:09:00,
2016-02-13 13:14:00,8.3,-6.9,30.65,NW,321,5.0,8.0,49,0.00,,CLR,0.00,VWS V15.00,2016-02-13 19:14:00,
2016-02-13 13:19:00,8.4,-6.8,30.65,NE,34,5.0,8.0,49,0.00,,CLR,0.00,VWS V15.00,2016-02-13 19:19:00,
2016-02-13 13:24:00,8.5,-6.7,30.65,NNW,337,4.0,6.0,49,0.00,,CLR,0.00,VWS V15.00,2016-02-13 19:24:00,
2016-02-13 13:29:00,8.8,-6.9,30.64,NNE,15,1.0,6.0,48,0.00,,CLR,0.00,VWS V15.00,2016-02-13 19:29:00,
2016-02-13 13:34:00,9.0,-6.7,30.64,NNW,344,0.0,6.0,48,0.00,,CLR,0.00,VWS V15.00,2016-02-13 19:34:00,
2016-02-13 13:39:00,9.1,-6.2,30.64,NNE,23,2.0,6.0,49,0.00,,CLR,0.00,VWS V15.00,2016-02-13 19:39:00,
2016-02-13 13:44:00,9.4,-5.9,30.65,NW,325,4.0,5.0,49,0.00,,CLR,0.00,VWS V15.00,2016-02-13 19:44:00,
2016-02-13 13:49:00,9.8,-6.4,30.65,WNW,295,0.0,5.0,47,0.00,,CLR,0.00,VWS V15.00,2016-02-13 19:49:00,
2016-02-13 13:54:00,10.3,-6.4,30.64,NNW,337,1.0,4.0,46,0.00,,CLR,0.00,VWS V15.00,2016-02-13 19:54:00,
2016-02-13 13:59:00,10.6,-5.6,30.64,WNW,294,3.0,6.0,47,0.00,,CLR,0.00,VWS V15.00,2016-02-13 19:59:00,
2016-02-13 14:04:00,11.3,-5.4,30.64,West,275,7.0,8.0,46,0.00,,CLR,0.00,VWS V15.00,2016-02-13 20:04:00,
2016-02-13 14:09:00,11.5,-5.7,30.64,West,275,7.0,9.0,45,0.00,,CLR,0.00,VWS V15.00,2016-02-13 20:09:00,
2016-02-13 14:14:00,11.5,-5.7,30.64,NNW,333,5.0,9.0,45,0.00,,CLR,0.00,VWS V15.00,2016-02-13 20:14:00,
2016-02-13 14:24:00,11.4,-5.3,30.63,WNW,297,5.0,9.0,46,0.00,,CLR,0.00,VWS V15.00,2016-02-13 20:24:00,
2016-02-13 14:29:00,11.6,-5.6,30.63,WNW,298,2.0,9.0,45,0.00,,CLR,0.00,VWS V15.00,2016-02-13 20:29:00,
2016-02-13 14:39:00,11.5,-6.2,30.62,NE,37,4.0,6.0,44,0.00,,FEW150,0.00,VWS V15.00,2016-02-13 20:39:00,
2016-02-13 14:44:00,11.3,-6.4,30.62,North,360,4.0,8.0,44,0.00,,FEW150,0.00,VWS V15.00,2016-02-13 20:44:00,
2016-02-13 14:49:00,11.2,-6.4,30.62,North,5,3.0,8.0,44,0.00,,FEW150,0.00,VWS V15.00,2016-02-13 20:49:00,
2016-02-13 14:59:00,11.0,-6.2,30.61,North,5,3.0,8.0,45,0.00,,FEW150,0.00,VWS V15.00,2016-02-13 20:59:00,
2016-02-13 15:04:00,11.0,-6.6,30.61,NNW,344,5.0,6.0,44,0.00,,FEW150,0.00,VWS V15.00,2016-02-13 21:04:00,
2016-02-13 15:09:00,11.1,-6.5,30.61,NNW,327,4.0,6.0,44,0.00,,FEW150,0.00,VWS V15.00,2016-02-13 21:09:00,
2016-02-13 15:14:00,11.1,-6.5,30.61,North,355,1.0,8.0,44,0.00,,FEW150,0.00,VWS V15.00,2016-02-13 21:14:00,
2016-02-13 15:19:00,11.2,-6.4,30.61,North,355,2.0,8.0,44,0.00,,FEW150,0.00,VWS V15.00,2016-02-13 21:19:00,
2016-02-13 15:24:00,11.2,-6.0,30.61,North,5,0.0,6.0,45,0.00,,FEW150,0.00,VWS V15.00,2016-02-13 21:24:00,
2016-02-13 15:29:00,11.3,-5.9,30.60,NNW,346,3.0,6.0,45,0.00,,FEW150,0.00,VWS V15.00,2016-02-13 21:29:00,
2016-02-13 15:34:00,11.3,-6.4,30.61,NNW,336,3.0,5.0,44,0.00,,FEW150,0.00,VWS V15.00,2016-02-13 21:34:00,
2016-02-13 15:39:00,11.3,-5.9,30.61,North,360,0.0,5.0,45,0.00,,FEW250,0.00,VWS V15.00,2016-02-13 21:39:00,
2016-02-13 15:44:00,11.5,-6.2,30.61,North,351,3.0,3.0,44,0.00,,FEW250,0.00,VWS V15.00,2016-02-13 21:44:00,
2016-02-13 15:49:00,11.6,-5.6,30.61,NNW,344,0.0,3.0,45,0.00,,FEW250,0.00,VWS V15.00,2016-02-13 21:49:00,
2016-02-13 15:54:00,11.7,-6.0,30.61,NNW,331,4.0,4.0,44,0.00,,FEW250,0.00,VWS V15.00,2016-02-13 21:54:00,
2016-02-13 16:04:00,11.6,-6.1,30.60,NNE,32,2.0,4.0,44,0.00,,FEW250,0.00,VWS V15.00,2016-02-13 22:04:00,
2016-02-13 16:09:00,11.5,-5.7,30.61,North,355,4.0,4.0,45,0.00,,FEW250,0.00,VWS V15.00,2016-02-13 22:09:00,
2016-02-13 16:14:00,11.6,-6.1,30.60,North,355,1.0,4.0,44,0.00,,FEW250,0.00,VWS V15.00,2016-02-13 22:14:00,
2016-02-13 16:19:00,11.6,-6.1,30.61,NNW,344,3.0,4.0,44,0.00,,FEW250,0.00,VWS V15.00,2016-02-13 22:19:00,
2016-02-13 16:24:00,11.5,-6.2,30.60,NNW,342,3.0,4.0,44,0.00,,FEW250,0.00,VWS V15.00,2016-02-13 22:24:00,
2016-02-13 16:29:00,11.5,-6.2,30.60,North,5,1.0,4.0,44,0.00,,FEW250,0.00,VWS V15.00,2016-02-13 22:29:00,